,,Stat5,,Stat1,,Stat2,,Stat3,,Stat4,,Wind1,,Wind1,
time,status,PA1M_AVG,status,PR1M_SUM,status,RH1M_AVG,status,SR1M_AVG,status,TA1M_AVG,status,W1dAve1m,status,W1sAve1m,
2002-11-23, 00:00:01,VALID,918.614,VALID,0,VALID,95.2305,VALID,-0.0509425,VALID,19.0352,VALID,2,VALID,0.551683,
2002-11-23, 00:01:01,VALID,918.607,VALID,0,VALID,95.2419,VALID,-0.0169808,VALID,19.0613,VALID,14,VALID,0.271326,
2002-11-23, 00:02:01,VALID,918.611,VALID,0,VALID,95.2368,VALID,-0.0169808,VALID,19.1003,VALID,15,VALID,0.454392,
2002-11-23, 00:03:00,VALID,918.603,VALID,0,VALID,95.1198,VALID,-0.0339617,VALID,19.1261,VALID,10,VALID,0.659539,
2002-11-23, 00:04:00,VALID,918.593,VALID,0,VALID,94.9609,VALID,-0.0169808,VALID,19.1353,VALID,8,VALID,0.792067,
2002-11-23, 00:05:00,VALID,918.58,VALID,0,VALID,94.6455,VALID,-0.0509425,VALID,19.1711,VALID,9,VALID,0.880551,
2002-11-23, 00:06:00,VALID,918.559,VALID,0,VALID,94.2539,VALID,-0.0509425,VALID,19.2168,VALID,12,VALID,0.934245,
2002-11-23, 00:07:00,VALID,918.551,VALID,0,VALID,93.9703,VALID,0,VALID,19.235,VALID,10,VALID,1.22171,
2002-11-23, 00:08:00,VALID,918.527,VALID,0,VALID,93.7592,VALID,-0.0169808,VALID,19.3008,VALID,14,VALID,1.12141,
2002-11-23, 00:09:01,VALID,918.501,VALID,0,VALID,93.5367,VALID,0,VALID,19.3485,VALID,7,VALID,1.04253,
2002-11-23, 00:10:00,VALID,918.499,VALID,0,VALID,93.3307,VALID,0,VALID,19.3977,VALID,12,VALID,0.849662,
2002-11-23, 00:11:00,VALID,918.492,VALID,0,VALID,93.2251,VALID,0,VALID,19.4035,VALID,5,VALID,0.709335,
2002-11-23, 00:12:01,VALID,918.473,VALID,0,VALID,93.2455,VALID,-0.0169808,VALID,19.4132,VALID,4,VALID,0.793074,
2002-11-23, 00:13:00,VALID,918.46,VALID,0,VALID,93.2379,VALID,-0.0679233,VALID,19.4164,VALID,360,VALID,0.702303,
2002-11-23, 00:14:01,VALID,918.45,VALID,0,VALID,93.2938,VALID,-0.0509425,VALID,19.4137,VALID,3,VALID,0.628606,
2002-11-23, 00:15:01,VALID,918.432,VALID,0,VALID,93.4375,VALID,-0.0339617,VALID,19.4067,VALID,359,VALID,0.679265,
2002-11-23, 00:16:01,VALID,918.408,VALID,0,VALID,93.5278,VALID,-0.0169808,VALID,19.4159,VALID,360,VALID,0.781039,
2002-11-23, 00:17:00,VALID,918.383,VALID,0,VALID,93.5062,VALID,0,VALID,19.4517,VALID,6,VALID,0.868454,
2002-11-23, 00:18:01,VALID,918.356,VALID,0,VALID,93.3765,VALID,-0.0339617,VALID,19.4842,VALID,14,VALID,0.815245,
2002-11-23, 00:19:01,VALID,918.319,VALID,0,VALID,93.3523,VALID,0,VALID,19.4808,VALID,7,VALID,0.992622,
2002-11-23, 00:20:00,VALID,918.287,VALID,0,VALID,93.524,VALID,-0.0339617,VALID,19.4942,VALID,9,VALID,0.899282,
2002-11-23, 00:21:01,VALID,918.256,VALID,0,VALID,93.6371,VALID,-0.0679233,VALID,19.5208,VALID,6,VALID,0.940905,
2002-11-23, 00:22:01,VALID,918.25,VALID,0,VALID,93.454,VALID,-0.101885,VALID,19.5493,VALID,1,VALID,1.06989,
2002-11-23, 00:23:00,VALID,918.247,VALID,0,VALID,93.3065,VALID,-0.101885,VALID,19.5618,VALID,350,VALID,0.766242,
2002-11-23, 00:24:00,VALID,918.237,VALID,0,VALID,93.2379,VALID,-0.101885,VALID,19.5849,VALID,356,VALID,0.611779,
2002-11-23, 00:25:00,VALID,918.22,VALID,0,VALID,93.1972,VALID,-0.0849042,VALID,19.5782,VALID,351,VALID,0.620271,
2002-11-23, 00:26:00,VALID,918.232,VALID,0,VALID,93.07,VALID,-0.101885,VALID,19.5914,VALID,357,VALID,0.388672,
2002-11-23, 00:27:00,VALID,918.224,VALID,0,VALID,93.0586,VALID,-0.0849042,VALID,19.6048,VALID,324,VALID,0.739654,
2002-11-23, 00:28:00,VALID,918.217,VALID,0,VALID,93.056,VALID,-0.101885,VALID,19.6204,VALID,8,VALID,0.402872,
2002-11-23, 00:29:01,VALID,918.212,VALID,0,VALID,93.0497,VALID,-0.0849042,VALID,19.6274,VALID,328,VALID,0.425347,
2002-11-23, 00:30:00,VALID,918.201,VALID,0,VALID,93.1488,VALID,-0.101885,VALID,19.6266,VALID,339,VALID,0.357475,
2002-11-23, 00:31:00,VALID,918.201,VALID,0,VALID,93.2404,VALID,-0.101885,VALID,19.6306,VALID,359,VALID,0.126402,
2002-11-23, 00:32:01,VALID,918.182,VALID,0,VALID,93.3981,VALID,-0.101885,VALID,19.6142,VALID,357,VALID,0.291596,
2002-11-23, 00:33:00,VALID,918.169,VALID,0,VALID,93.5443,VALID,-0.0849042,VALID,19.5787,VALID,357,VALID,0.0230263,
2002-11-23, 00:34:01,VALID,918.144,VALID,0,VALID,93.7058,VALID,-0.101885,VALID,19.5362,VALID,358,VALID,0.10016,
2002-11-23, 00:35:01,VALID,918.119,VALID,0,VALID,93.8012,VALID,-0.101885,VALID,19.5141,VALID,359,VALID,0.0126689,
2002-11-23, 00:36:01,VALID,918.106,VALID,0,VALID,94.0085,VALID,-0.101885,VALID,19.4947,VALID,333,VALID,0.116132,
2002-11-23, 00:37:00,VALID,918.088,VALID,0,VALID,94.161,VALID,-0.0849042,VALID,19.4977,VALID,330,VALID,0,
2002-11-23, 00:38:01,VALID,918.067,VALID,0,VALID,94.1432,VALID,-0.0849042,VALID,19.4912,VALID,330,VALID,0,
2002-11-23, 00:39:01,VALID,918.048,VALID,0,VALID,94.1127,VALID,-0.0509425,VALID,19.4748,VALID,358,VALID,0.230252,
2002-11-23, 00:40:00,VALID,918.052,VALID,0,VALID,94.0949,VALID,-0.0339617,VALID,19.4686,VALID,348,VALID,0.384713,
2002-11-23, 00:41:01,VALID,918.051,VALID,0,VALID,94.1153,VALID,-0.0679233,VALID,19.4688,VALID,338,VALID,0.502804,
2002-11-23, 00:42:01,VALID,918.033,VALID,0,VALID,94.1115,VALID,-0.0679233,VALID,19.4686,VALID,315,VALID,0.160473,
2002-11-23, 00:43:00,VALID,918.026,VALID,0,VALID,94.1445,VALID,-0.0849042,VALID,19.4885,VALID,291,VALID,0.0912829,
2002-11-23, 00:44:00,VALID,918.013,VALID,0,VALID,94.1394,VALID,-0.101885,VALID,19.4914,VALID,291,VALID,0,
2002-11-23, 00:45:00,VALID,918.006,VALID,0,VALID,94.0873,VALID,-0.0679233,VALID,19.4944,VALID,291,VALID,0,
2002-11-23, 00:46:00,VALID,918.008,VALID,0,VALID,94.0555,VALID,-0.0849042,VALID,19.475,VALID,280,VALID,0.12283,
2002-11-23, 00:47:00,VALID,917.984,VALID,0,VALID,94.0822,VALID,-0.0679233,VALID,19.4626,VALID,278,VALID,0.226774,
2002-11-23, 00:48:00,VALID,917.983,VALID,0,VALID,94.1585,VALID,-0.101885,VALID,19.43,VALID,298,VALID,0.206715,
2002-11-23, 00:49:01,VALID,917.95,VALID,0,VALID,94.4103,VALID,-0.0849042,VALID,19.4171,VALID,339,VALID,0.0258247,
2002-11-23, 00:50:00,VALID,917.932,VALID,0,VALID,94.3938,VALID,-0.0509425,VALID,19.4268,VALID,332,VALID,0.0101351,
2002-11-23, 00:51:00,VALID,917.912,VALID,0,VALID,94.395,VALID,-0.0849042,VALID,19.4231,VALID,356,VALID,0.297276,
2002-11-23, 00:52:01,VALID,917.895,VALID,0,VALID,94.3785,VALID,-0.101885,VALID,19.4174,VALID,1,VALID,0.260135,
2002-11-23, 00:53:00,VALID,917.885,VALID,0,VALID,94.4904,VALID,-0.0509425,VALID,19.4104,VALID,3,VALID,0.0900493,
2002-11-23, 00:54:01,VALID,917.865,VALID,0,VALID,94.6252,VALID,-0.101885,VALID,19.3975,VALID,3,VALID,0.0130208,
2002-11-23, 00:55:00,VALID,917.852,VALID,0,VALID,94.7447,VALID,-0.101885,VALID,19.3779,VALID,3,VALID,0.00337838,
2002-11-23, 00:56:01,VALID,917.841,VALID,0,VALID,94.8452,VALID,-0.0849042,VALID,19.3654,VALID,3,VALID,0.0342061,
2002-11-23, 00:57:00,VALID,917.818,VALID,0,VALID,94.9049,VALID,-0.0509425,VALID,19.3557,VALID,3,VALID,0.00760135,
2002-11-23, 00:58:01,VALID,917.798,VALID,0,VALID,95.0588,VALID,-0.0509425,VALID,19.3525,VALID,3,VALID,0,
2002-11-23, 00:59:01,VALID,917.779,VALID,0,VALID,95.1949,VALID,-0.101885,VALID,19.3458,VALID,3,VALID,0,
2002-11-23, 01:00:00,VALID,917.757,VALID,0,VALID,95.2979,VALID,-0.0849042,VALID,19.3453,VALID,3,VALID,0,
2002-11-23, 01:01:01,VALID,917.74,VALID,0,VALID,95.4123,VALID,-0.0679233,VALID,19.3523,VALID,3,VALID,0.0132212,
2002-11-23, 01:02:01,VALID,917.726,VALID,0,VALID,95.5382,VALID,-0.0339617,VALID,19.3458,VALID,3,VALID,0,
2002-11-23, 01:03:00,VALID,917.702,VALID,0,VALID,95.6577,VALID,-0.0849042,VALID,19.3555,VALID,3,VALID,0,
2002-11-23, 01:04:00,VALID,917.696,VALID,0,VALID,95.6196,VALID,-0.0679233,VALID,19.3329,VALID,3,VALID,0,
2002-11-23, 01:05:01,VALID,917.689,VALID,0,VALID,95.5369,VALID,-0.0679233,VALID,19.3234,VALID,3,VALID,0,
2002-11-23, 01:06:01,VALID,917.688,VALID,0,VALID,95.6717,VALID,0.0339617,VALID,19.3187,VALID,3,VALID,0,
2002-11-23, 01:07:00,VALID,917.677,VALID,0,VALID,95.7887,VALID,0.0509425,VALID,19.3183,VALID,3,VALID,0,
2002-11-23, 01:08:01,VALID,917.658,VALID,0,VALID,95.8129,VALID,0.0169808,VALID,19.3347,VALID,3,VALID,0,
2002-11-23, 01:09:01,VALID,917.659,VALID,0,VALID,95.9095,VALID,0,VALID,19.3347,VALID,3,VALID,0,
2002-11-23, 01:10:01,VALID,917.629,VALID,0,VALID,95.8637,VALID,0.0679233,VALID,19.3349,VALID,3,VALID,0,
2002-11-23, 01:11:00,VALID,917.623,VALID,0,VALID,95.7684,VALID,0,VALID,19.3217,VALID,3,VALID,0,
2002-11-23, 01:12:01,VALID,917.614,VALID,0,VALID,95.687,VALID,0.0169808,VALID,19.3028,VALID,3,VALID,0,
2002-11-23, 01:13:00,VALID,917.602,VALID,0,VALID,95.6908,VALID,0.0169808,VALID,19.2994,VALID,3,VALID,0.0209704,
2002-11-23, 01:14:01,VALID,917.569,VALID,0,VALID,95.7722,VALID,0.0169808,VALID,19.3058,VALID,3,VALID,0.0478766,
2002-11-23, 01:15:01,VALID,917.557,VALID,0,VALID,95.8714,VALID,0.0169808,VALID,19.3056,VALID,5,VALID,0.20777,
2002-11-23, 01:16:01,VALID,917.529,VALID,0,VALID,95.9057,VALID,0,VALID,19.3019,VALID,8,VALID,0.478463,
2002-11-23, 01:17:00,VALID,917.52,VALID,0,VALID,95.9667,VALID,0.0169808,VALID,19.2929,VALID,15,VALID,0.72424,
2002-11-23, 01:18:01,VALID,917.506,VALID,0,VALID,96.0367,VALID,0.0509425,VALID,19.286,VALID,26,VALID,0.396326,
2002-11-23, 01:19:01,VALID,917.492,VALID,0,VALID,96.0596,VALID,0,VALID,19.2924,VALID,35,VALID,0,
2002-11-23, 01:20:01,VALID,917.5,VALID,0,VALID,96.0354,VALID,-0.0169808,VALID,19.3063,VALID,35,VALID,0,
2002-11-23, 01:21:01,VALID,917.475,VALID,0,VALID,95.9947,VALID,-0.118866,VALID,19.3043,VALID,12,VALID,0,
2002-11-23, 01:22:01,VALID,917.472,VALID,0,VALID,95.9985,VALID,-0.101885,VALID,19.2941,VALID,357,VALID,0.0147804,
2002-11-23, 01:23:01,VALID,917.47,VALID,0,VALID,96.1257,VALID,-0.101885,VALID,19.3105,VALID,340,VALID,0.449219,
2002-11-23, 01:24:01,VALID,917.464,VALID,0,VALID,96.0913,VALID,-0.101885,VALID,19.3299,VALID,339,VALID,0.0586939,
2002-11-23, 01:25:01,VALID,917.448,VALID,0,VALID,96.0328,VALID,-0.101885,VALID,19.3304,VALID,341,VALID,0.0172697,
2002-11-23, 01:26:01,VALID,917.447,VALID,0,VALID,96.0328,VALID,-0.101885,VALID,19.314,VALID,342,VALID,0.0538194,
2002-11-23, 01:27:01,VALID,917.44,VALID,0,VALID,96.1041,VALID,-0.101885,VALID,19.3073,VALID,337,VALID,0.178209,
2002-11-23, 01:28:01,VALID,917.432,VALID,0,VALID,96.1295,VALID,-0.101885,VALID,19.3177,VALID,335,VALID,0.0185811,
2002-11-23, 01:29:01,VALID,917.443,VALID,0,VALID,96.099,VALID,-0.118866,VALID,19.3073,VALID,282,VALID,0.0490451,
2002-11-23, 01:30:01,VALID,917.436,VALID,0,VALID,96.0824,VALID,-0.101885,VALID,19.2914,VALID,265,VALID,0,
2002-11-23, 01:31:01,VALID,917.397,VALID,0,VALID,96.1613,VALID,-0.101885,VALID,19.2814,VALID,17,VALID,0.533053,
2002-11-23, 01:32:01,VALID,917.389,VALID,0,VALID,96.2236,VALID,-0.118866,VALID,19.2655,VALID,24,VALID,0.476985,
2002-11-23, 01:33:01,VALID,917.366,VALID,0,VALID,96.3749,VALID,-0.118866,VALID,19.2491,VALID,19,VALID,0.826275,
2002-11-23, 01:34:01,VALID,917.369,VALID,0,VALID,96.6585,VALID,-0.101885,VALID,19.275,VALID,359,VALID,0.290064,
2002-11-23, 01:35:01,VALID,917.363,VALID,0,VALID,96.7068,VALID,-0.0509425,VALID,19.2805,VALID,350,VALID,0.0249155,
2002-11-23, 01:36:01,VALID,917.343,VALID,0,VALID,96.6661,VALID,0,VALID,19.2864,VALID,350,VALID,0.0603885,
2002-11-23, 01:37:01,VALID,917.333,VALID,0,VALID,96.6674,VALID,0,VALID,19.2735,VALID,350,VALID,0.176731,
2002-11-23, 01:38:01,VALID,917.318,VALID,0,VALID,96.6852,VALID,0.0169808,VALID,19.2668,VALID,2,VALID,0.355574,
2002-11-23, 01:39:01,VALID,917.301,VALID,0,VALID,96.7437,VALID,0,VALID,19.2578,VALID,10,VALID,0.665365,
2002-11-23, 01:40:01,VALID,917.275,VALID,0,VALID,96.8047,VALID,0,VALID,19.2477,VALID,11,VALID,0.715372,
2002-11-23, 01:41:01,VALID,917.259,VALID,0,VALID,96.8263,VALID,0,VALID,19.2345,VALID,14,VALID,0.854768,
2002-11-23, 01:42:00,VALID,917.262,VALID,0,VALID,96.7081,VALID,-0.0169808,VALID,19.2117,VALID,10,VALID,1.02175,
2002-11-23, 01:43:00,VALID,917.267,VALID,0,VALID,96.6826,VALID,0.0169808,VALID,19.2151,VALID,6,VALID,0.66324,
2002-11-23, 01:44:00,VALID,917.236,VALID,0,VALID,96.5644,VALID,0,VALID,19.2223,VALID,13,VALID,0.69371,
2002-11-23, 01:45:00,VALID,917.224,VALID,0,VALID,96.4627,VALID,0.0169808,VALID,19.2062,VALID,5,VALID,0.640214,
2002-11-23, 01:46:00,VALID,917.21,VALID,0,VALID,96.483,VALID,0,VALID,19.2057,VALID,358,VALID,0.85178,
2002-11-23, 01:47:00,VALID,917.182,VALID,0,VALID,96.3889,VALID,0,VALID,19.2156,VALID,6,VALID,1.14147,
2002-11-23, 01:48:00,VALID,917.183,VALID,0,VALID,96.3012,VALID,0,VALID,19.2221,VALID,17,VALID,0.950169,
2002-11-23, 01:49:00,VALID,917.161,VALID,0,VALID,96.1982,VALID,0.0169808,VALID,19.2089,VALID,16,VALID,0.984809,
2002-11-23, 01:50:00,VALID,917.148,VALID,0,VALID,96.1168,VALID,0,VALID,19.2084,VALID,26,VALID,0.972551,
2002-11-23, 01:51:00,VALID,917.133,VALID,0,VALID,96.0621,VALID,-0.0169808,VALID,19.2121,VALID,19,VALID,0.66867,
2002-11-23, 01:52:00,VALID,917.123,VALID,0,VALID,96.0227,VALID,0,VALID,19.2156,VALID,19,VALID,0.535895,
2002-11-23, 01:53:00,VALID,917.129,VALID,0,VALID,96.0138,VALID,0,VALID,19.2057,VALID,17,VALID,0.579564,
2002-11-23, 01:54:00,VALID,917.111,VALID,0,VALID,96.071,VALID,0,VALID,19.1861,VALID,15,VALID,0.552284,
2002-11-23, 01:55:00,VALID,917.114,VALID,0,VALID,96.132,VALID,0,VALID,19.1863,VALID,13,VALID,0.655617,
2002-11-23, 01:56:00,VALID,917.103,VALID,0,VALID,96.1448,VALID,0,VALID,19.1701,VALID,13,VALID,0.512669,
2002-11-23, 01:57:00,VALID,917.089,VALID,0,VALID,96.2109,VALID,0,VALID,19.1803,VALID,12,VALID,0.418919,
2002-11-23, 01:58:00,VALID,917.067,VALID,0,VALID,96.2198,VALID,0,VALID,19.1798,VALID,12,VALID,0.365287,
2002-11-23, 01:59:00,VALID,917.037,VALID,0,VALID,96.2261,VALID,0.0169808,VALID,19.1537,VALID,12,VALID,0.403863,
2002-11-23, 02:00:00,VALID,917.009,VALID,0,VALID,96.3151,VALID,-0.0169808,VALID,19.148,VALID,12,VALID,0.366132,
2002-11-23, 02:01:00,VALID,916.995,VALID,0,VALID,96.3978,VALID,-0.0169808,VALID,19.1418,VALID,12,VALID,0.482772,
2002-11-23, 02:02:00,VALID,916.98,VALID,0,VALID,96.469,VALID,0.0169808,VALID,19.1247,VALID,12,VALID,0.554688,
2002-11-23, 02:03:00,VALID,916.954,VALID,0,VALID,96.38,VALID,0,VALID,19.1319,VALID,11,VALID,0.568257,
2002-11-23, 02:04:00,VALID,916.953,VALID,0,VALID,96.3711,VALID,0,VALID,19.0929,VALID,12,VALID,0.568109,
2002-11-23, 02:05:00,VALID,916.93,VALID,0,VALID,96.5949,VALID,-0.0169808,VALID,19.0836,VALID,12,VALID,0.427365,
2002-11-23, 02:06:00,VALID,916.93,VALID,0,VALID,96.6076,VALID,-0.0169808,VALID,19.0769,VALID,12,VALID,0.418837,
2002-11-23, 02:07:00,VALID,916.912,VALID,0,VALID,96.6152,VALID,0,VALID,19.0476,VALID,12,VALID,0.368666,
2002-11-23, 02:08:00,VALID,916.896,VALID,0,VALID,96.647,VALID,-0.0169808,VALID,19.0349,VALID,12,VALID,0.406461,
2002-11-23, 02:09:00,VALID,916.874,VALID,0,VALID,96.8212,VALID,0,VALID,19.0225,VALID,12,VALID,0.575521,
2002-11-23, 02:10:00,VALID,916.878,VALID,0,VALID,96.9865,VALID,0,VALID,19.0215,VALID,12,VALID,0.614654,
2002-11-23, 02:11:00,VALID,916.874,VALID,0,VALID,97.0298,VALID,0,VALID,19.0481,VALID,12,VALID,0.368189,
2002-11-23, 02:12:00,VALID,916.862,VALID,0,VALID,97.0311,VALID,0,VALID,19.0578,VALID,12,VALID,0.214738,
2002-11-23, 02:13:00,VALID,916.847,VALID,0,VALID,96.9649,VALID,0.0169808,VALID,19.0839,VALID,12,VALID,0.1544,
2002-11-23, 02:14:00,VALID,916.826,VALID,0,VALID,96.8759,VALID,-0.0169808,VALID,19.0799,VALID,12,VALID,0.0274439,
2002-11-23, 02:15:00,VALID,916.824,VALID,0,VALID,96.7526,VALID,0,VALID,19.0673,VALID,12,VALID,0.11951,
2002-11-23, 02:16:00,VALID,916.81,VALID,0,VALID,96.7004,VALID,0,VALID,19.0412,VALID,12,VALID,0.316723,
2002-11-23, 02:17:00,VALID,916.808,VALID,0,VALID,96.7449,VALID,0,VALID,19.0352,VALID,12,VALID,0.279983,
2002-11-23, 02:18:00,VALID,916.796,VALID,0,VALID,96.9319,VALID,0,VALID,19.028,VALID,357,VALID,0.426098,
2002-11-23, 02:19:00,VALID,916.788,VALID,0,VALID,97.0527,VALID,-0.0169808,VALID,19.0769,VALID,350,VALID,0.063151,
2002-11-23, 02:20:00,VALID,916.764,VALID,0,VALID,97.0489,VALID,0,VALID,19.0936,VALID,350,VALID,0,
2002-11-23, 02:21:00,VALID,916.751,VALID,0,VALID,97.1264,VALID,-0.0339617,VALID,19.1189,VALID,350,VALID,0.0629006,
2002-11-23, 02:22:00,VALID,916.74,VALID,0,VALID,97.2282,VALID,0,VALID,19.1612,VALID,349,VALID,0.00844595,
2002-11-23, 02:23:00,VALID,916.722,VALID,0,VALID,97.2727,VALID,-0.0339617,VALID,19.187,VALID,358,VALID,0.274671,
2002-11-23, 02:24:00,VALID,916.702,VALID,0,VALID,97.1252,VALID,0,VALID,19.1833,VALID,5,VALID,0.595553,
2002-11-23, 02:25:00,VALID,916.687,VALID,0,VALID,97.0896,VALID,-0.0169808,VALID,19.1801,VALID,13,VALID,0.534128,
2002-11-23, 02:26:00,VALID,916.696,VALID,0,VALID,97.0247,VALID,0,VALID,19.1803,VALID,352,VALID,0.269531,
2002-11-23, 02:27:00,VALID,916.713,VALID,0,VALID,96.9802,VALID,-0.0169808,VALID,19.1711,VALID,353,VALID,0,
2002-11-23, 02:28:00,VALID,916.711,VALID,0,VALID,96.97,VALID,-0.0509425,VALID,19.1672,VALID,353,VALID,0,
2002-11-23, 02:29:00,VALID,916.717,VALID,0,VALID,96.9522,VALID,-0.0169808,VALID,19.1709,VALID,353,VALID,0.194227,
2002-11-23, 02:30:00,VALID,916.719,VALID,0,VALID,96.9141,VALID,-0.0339617,VALID,19.1676,VALID,359,VALID,0.404139,
2002-11-23, 02:31:00,VALID,916.713,VALID,0,VALID,96.8314,VALID,-0.0339617,VALID,19.1254,VALID,6,VALID,0.733974,
2002-11-23, 02:32:00,VALID,916.701,VALID,0,VALID,96.8263,VALID,-0.0339617,VALID,19.1326,VALID,11,VALID,0.622677,
2002-11-23, 02:33:00,VALID,916.694,VALID,0,VALID,96.8556,VALID,-0.0169808,VALID,19.1259,VALID,22,VALID,0.857113,
2002-11-23, 02:34:00,VALID,916.672,VALID,0,VALID,96.867,VALID,0,VALID,19.139,VALID,21,VALID,0.817107,
2002-11-23, 02:35:00,VALID,916.679,VALID,0,VALID,96.8734,VALID,-0.0339617,VALID,19.1289,VALID,16,VALID,0.653505,
2002-11-23, 02:36:00,VALID,916.69,VALID,0,VALID,96.853,VALID,-0.0339617,VALID,19.1552,VALID,357,VALID,0.534206,
2002-11-23, 02:37:00,VALID,916.703,VALID,0,VALID,96.9675,VALID,-0.0169808,VALID,19.1813,VALID,354,VALID,0.119932,
2002-11-23, 02:38:00,VALID,916.701,VALID,0,VALID,96.9573,VALID,0,VALID,19.1843,VALID,354,VALID,0.00105574,
2002-11-23, 02:39:00,VALID,916.696,VALID,0,VALID,97.1353,VALID,0,VALID,19.2062,VALID,359,VALID,0.522352,
2002-11-23, 02:40:00,VALID,916.677,VALID,0,VALID,97.0044,VALID,0,VALID,19.2099,VALID,3,VALID,0.558488,
2002-11-23, 02:41:00,VALID,916.664,VALID,0,VALID,97.0883,VALID,-0.0169808,VALID,19.2233,VALID,9,VALID,0.456931,
2002-11-23, 02:42:00,VALID,916.664,VALID,0,VALID,97.0743,VALID,0,VALID,19.2032,VALID,13,VALID,0.458404,
2002-11-23, 02:43:00,VALID,916.658,VALID,0,VALID,96.9598,VALID,-0.0169808,VALID,19.19,VALID,13,VALID,0.432771,
2002-11-23, 02:44:00,VALID,916.668,VALID,0,VALID,96.8263,VALID,-0.0169808,VALID,19.1709,VALID,13,VALID,0.0935497,
2002-11-23, 02:45:00,VALID,916.662,VALID,0,VALID,97.0361,VALID,-0.0509425,VALID,19.1644,VALID,12,VALID,0.0234375,
2002-11-23, 02:46:00,VALID,916.672,VALID,0,VALID,97.1569,VALID,-0.0169808,VALID,19.1771,VALID,12,VALID,0,
2002-11-23, 02:47:00,VALID,916.684,VALID,0,VALID,97.1646,VALID,0,VALID,19.1743,VALID,12,VALID,0,
2002-11-23, 02:48:00,VALID,916.693,VALID,0,VALID,97.176,VALID,-0.0169808,VALID,19.1681,VALID,12,VALID,0,
2002-11-23, 02:49:00,VALID,916.679,VALID,0,VALID,97.04,VALID,-0.0339617,VALID,19.1453,VALID,12,VALID,0.185113,
2002-11-23, 02:50:00,VALID,916.681,VALID,0,VALID,96.8861,VALID,-0.0339617,VALID,19.097,VALID,12,VALID,0.0646115,
2002-11-23, 02:51:00,VALID,916.666,VALID,0,VALID,96.9726,VALID,0.0169808,VALID,19.067,VALID,12,VALID,0.14383,
2002-11-23, 02:52:00,VALID,916.67,VALID,0,VALID,97.1684,VALID,0.0169808,VALID,19.0643,VALID,12,VALID,0.204181,
2002-11-23, 02:53:00,VALID,916.679,VALID,0,VALID,97.2828,VALID,0,VALID,19.0546,VALID,17,VALID,0.200247,
2002-11-23, 02:54:00,VALID,916.68,VALID,0,VALID,97.321,VALID,0,VALID,19.058,VALID,19,VALID,0.219351,
2002-11-23, 02:55:00,VALID,916.68,VALID,0,VALID,97.2828,VALID,-0.0169808,VALID,19.0223,VALID,19,VALID,0.224662,
2002-11-23, 02:56:00,VALID,916.688,VALID,0,VALID,97.4647,VALID,0,VALID,19.0255,VALID,19,VALID,0.412373,
2002-11-23, 02:57:00,VALID,916.682,VALID,0,VALID,97.6236,VALID,-0.0169808,VALID,19.0481,VALID,19,VALID,0.540118,
2002-11-23, 02:58:00,VALID,916.681,VALID,0,VALID,97.9682,VALID,0,VALID,19.1294,VALID,15,VALID,0.498944,
2002-11-23, 02:59:00,VALID,916.661,VALID,0,VALID,97.9377,VALID,0,VALID,19.145,VALID,15,VALID,0.249132,
2002-11-23, 03:00:00,VALID,916.666,VALID,0,VALID,97.9619,VALID,0,VALID,19.1642,VALID,15,VALID,0.129434,
2002-11-23, 03:01:00,VALID,916.672,VALID,0,VALID,97.925,VALID,0,VALID,19.187,VALID,15,VALID,0.0739183,
2002-11-23, 03:02:00,VALID,916.664,VALID,0,VALID,97.9339,VALID,-0.0169808,VALID,19.2037,VALID,15,VALID,0.435389,
2002-11-23, 03:03:00,VALID,916.664,VALID,0,VALID,97.7317,VALID,0,VALID,19.191,VALID,15,VALID,0.25514,
2002-11-23, 03:04:00,VALID,916.659,VALID,0,VALID,97.6681,VALID,0,VALID,19.155,VALID,15,VALID,0.505609,
2002-11-23, 03:05:00,VALID,916.637,VALID,0,VALID,97.691,VALID,0,VALID,19.1517,VALID,14,VALID,0.288651,
2002-11-23, 03:06:00,VALID,916.622,VALID,0,VALID,97.719,VALID,0,VALID,19.1515,VALID,7,VALID,0.256293,
2002-11-23, 03:07:00,VALID,916.605,VALID,0,VALID,97.8423,VALID,-0.0169808,VALID,19.1741,VALID,6,VALID,0.238598,
2002-11-23, 03:08:00,VALID,916.599,VALID,0,VALID,98.1005,VALID,0,VALID,19.2491,VALID,345,VALID,0.411529,
2002-11-23, 03:09:00,VALID,916.592,VALID,0,VALID,98.1679,VALID,-0.0169808,VALID,19.2939,VALID,346,VALID,0.307726,
2002-11-23, 03:10:00,VALID,916.594,VALID,0,VALID,98.0178,VALID,-0.0169808,VALID,19.2842,VALID,348,VALID,0.222128,
2002-11-23, 03:11:00,VALID,916.584,VALID,0,VALID,97.8996,VALID,-0.0169808,VALID,19.2713,VALID,348,VALID,0.162059,
2002-11-23, 03:12:00,VALID,916.585,VALID,0,VALID,97.8296,VALID,0,VALID,19.2519,VALID,348,VALID,0,
2002-11-23, 03:13:00,VALID,916.574,VALID,0,VALID,97.8856,VALID,-0.0169808,VALID,19.2646,VALID,348,VALID,0,
2002-11-23, 03:14:00,VALID,916.556,VALID,0,VALID,97.8017,VALID,0,VALID,19.2613,VALID,348,VALID,0,
2002-11-23, 03:15:00,VALID,916.546,VALID,0,VALID,97.8029,VALID,0,VALID,19.2491,VALID,348,VALID,0.00760135,
2002-11-23, 03:16:00,VALID,916.549,VALID,0,VALID,97.4825,VALID,0,VALID,19.1808,VALID,353,VALID,0.256123,
2002-11-23, 03:17:00,VALID,916.548,VALID,0,VALID,97.4303,VALID,0,VALID,19.1227,VALID,13,VALID,0.772593,
2002-11-23, 03:18:00,VALID,916.526,VALID,0,VALID,97.8067,VALID,0.0169808,VALID,19.152,VALID,7,VALID,0.644215,
2002-11-23, 03:19:00,VALID,916.529,VALID,0,VALID,97.9466,VALID,0,VALID,19.1644,VALID,7,VALID,0.667318,
2002-11-23, 03:20:00,VALID,916.518,VALID,0,VALID,97.9949,VALID,0,VALID,19.2002,VALID,9,VALID,0.697846,
2002-11-23, 03:21:00,VALID,916.52,VALID,0,VALID,98.1196,VALID,0,VALID,19.2315,VALID,16,VALID,0.783854,
2002-11-23, 03:22:00,VALID,916.527,VALID,0,VALID,98.0305,VALID,0,VALID,19.2509,VALID,20,VALID,0.491765,
2002-11-23, 03:23:00,VALID,916.517,VALID,0,VALID,97.8716,VALID,0.0339617,VALID,19.2477,VALID,19,VALID,0.5919,
2002-11-23, 03:24:00,VALID,916.514,VALID,0,VALID,97.7393,VALID,0.0509425,VALID,19.2318,VALID,15,VALID,0.754407,
2002-11-23, 03:25:00,VALID,916.496,VALID,0,VALID,97.7559,VALID,-0.0169808,VALID,19.2412,VALID,11,VALID,0.29523,
2002-11-23, 03:26:00,VALID,916.482,VALID,0,VALID,97.8474,VALID,0,VALID,19.2705,VALID,347,VALID,0.421875,
2002-11-23, 03:27:00,VALID,916.463,VALID,0,VALID,97.9644,VALID,0.0169808,VALID,19.3128,VALID,21,VALID,0.0798142,
2002-11-23, 03:28:00,VALID,916.459,VALID,0,VALID,97.8398,VALID,0,VALID,19.3227,VALID,17,VALID,0,
2002-11-23, 03:29:00,VALID,916.457,VALID,0,VALID,97.6465,VALID,0,VALID,19.2902,VALID,17,VALID,0,
2002-11-23, 03:30:00,VALID,916.45,VALID,0,VALID,97.7406,VALID,0,VALID,19.2835,VALID,8,VALID,0.0825591,
2002-11-23, 03:31:00,VALID,916.436,VALID,0,VALID,97.8195,VALID,0,VALID,19.3123,VALID,9,VALID,0.209135,
2002-11-23, 03:32:00,VALID,916.431,VALID,0,VALID,97.7203,VALID,0,VALID,19.3222,VALID,30,VALID,0.0542652,
2002-11-23, 03:33:00,VALID,916.447,VALID,0,VALID,97.6847,VALID,0.0169808,VALID,19.3359,VALID,30,VALID,0,
2002-11-23, 03:34:00,VALID,916.437,VALID,0,VALID,97.6529,VALID,0.0169808,VALID,19.3252,VALID,30,VALID,0,
2002-11-23, 03:35:00,VALID,916.431,VALID,0,VALID,97.5473,VALID,0,VALID,19.319,VALID,29,VALID,0.284206,
2002-11-23, 03:36:00,VALID,916.42,VALID,0,VALID,97.4863,VALID,0,VALID,19.3063,VALID,19,VALID,0.249367,
2002-11-23, 03:37:00,VALID,916.428,VALID,0,VALID,97.4303,VALID,0,VALID,19.3093,VALID,10,VALID,0.0857264,